Regional Weather Roundup
Issued by NWS

Home | Current Version | Previous Version | Graphics & Text | Print | Product List | Glossary Off
Versions: 1 2 3 4 5 6 7 8 9 10 11 12 13 14 15 16 17 18 19 20 21 22 23 24 25 26 27 28 29 30 31 32 33 34 35 36 37 38 39 40 41 42 43 44 45 46 47 48 49 50

999
ASUS43 KMKX 241300
RWRWI

WISCONSIN REGIONAL WEATHER ROUNDUP
NATIONAL WEATHER SERVICE MILWAUKEE/SULLIVAN WI
700 AM CST FRI NOV 24 2017

NOTE: "FAIR" INDICATES FEW OR NO CLOUDS BELOW 12,000 FEET WITH NO
SIGNIFICANT WEATHER AND/OR OBSTRUCTIONS TO VISIBILITY.

WIZ001-002-006>008-014>016-023>028-241400-
NORTHWEST WISCONSIN

CITY           SKY/WX    TMP DP  RH WIND       PRES   REMARKS
SUPERIOR ARPT  MOCLDY    41  35  77 SW7       29.28F
ASHLAND        CLOUDY    45  33  63 S13G23    29.30F
HAYWARD        CLOUDY    44  34  67 S12       29.34F
SIREN          CLOUDY    44  36  71 S8        29.33F
CUMBERLAND     CLEAR     36  32  87 S6        29.38F WCI  31
RICE LAKE      CLEAR     39  34  80 S6        29.40F
CHETEK         CLEAR     43  36  75 S9        29.40F
LADYSMITH      CLOUDY    39  33  77 S5        29.41F
EAU CLAIRE     NOT AVBL
MENOMONIE      CLEAR     44  35  71 SE5       29.42F
NEW RICHMOND   CLEAR     42  35  74 S7        29.38F
OSCEOLA        CLEAR     41  35  79 SE7       29.40F
$$

WIZ003>005-009-010-017-018-241400-
NORTH CENTRAL WISCONSIN

CITY           SKY/WX    TMP DP  RH WIND       PRES   REMARKS
MANITOWISH WTR CLOUDY    36  32  85 S8        29.37F WCI  30
ARBOR VITAE    CLEAR     39  32  76 S9        29.38F WCI  33
WOODRUFF       CLEAR     39  32  76 S9        29.38F WCI  33
RHINELANDER    MOCLDY    40  32  73 SW15G22   29.41F WCI  32
EAGLE RIVER    CLEAR     38  29  71 SW7       29.38F WCI  33
LAND O LAKES   CLEAR     39  31  72 SW7       29.39F WCI  34
PHILLIPS       MOCLDY    43  34  71 SW8       29.39F
TOMAHAWK       PTCLDY    38  31  74 S3        29.43F
MEDFORD        CLEAR     39  32  75 S8        29.44F WCI  34
MERRILL        CLOUDY    39  31  73 SW3       29.46F
$$

WIZ029-030-035-036-043>047-241400-
CENTRAL WISCONSIN

CITY           SKY/WX    TMP DP  RH WIND       PRES   REMARKS
WAUSAU         CLOUDY    39  31  72 VRB3      29.46F
MOSINEE        PTCLDY    39  32  75 S14       29.48F WCI  31
MARSHFIELD     CLEAR     42  32  67 S10       29.46F
STEVENS POINT  CLOUDY    41  31  67 S12       29.50F
WAUPACA        PTCLDY    45  31  59 S10       29.54F
WAUTOMA        MOCLDY    39  30  70 S5        29.55F
WISC RAPIDS    PTCLDY    44  33  65 SW13G23   29.51F
CAMP DOUGLAS   PTCLDY    45  33  62 S3        29.52F
$$

WIZ011>013-019>022-031-037>040-048>050-241400-
NORTHEAST WISCONSIN

CITY           SKY/WX    TMP DP  RH WIND       PRES   REMARKS
ANTIGO         CLOUDY    38  31  76 SW6       29.48S WCI  33
SHAWANO        PTCLDY    44  31  60 SW7       29.49F
OCONTO         CLOUDY    43  30  60 SW13G20   29.50F
STURGEON BAY   CLOUDY    42  30  62 S14       29.50F
GREEN BAY      CLOUDY    41  32  70 SW14      29.53F
MANITOWOC      PTCLDY    43  32  65 S8        29.57F
APPLETON       MOCLDY    39  27  60 SW16G24   29.53F WCI  30
CLINTONVILLE   CLOUDY    43  30  61 SW12      29.51F
OSHKOSH        CLOUDY    42  31  64 SW21G33   29.55F
$$

WIZ032>034-041-042-053>061-241400-
SOUTHWEST WISCONSIN

CITY           SKY/WX    TMP DP  RH WIND       PRES   REMARKS
LA CROSSE      CLOUDY    45  34  65 S9        29.51F
SPARTA         CLOUDY    43  34  72 S6        29.53F
VIROQUA        CLOUDY    42  34  75 S8        29.54F
BOSCOBEL       CLEAR     45  33  63 S9        29.58F
PRAIRIE DU CHI CLEAR     45  32  59 E3        29.58F
PLATTEVILLE    CLEAR     37  32  81 S12       29.63F WCI  30
$$

WIZ056-057-062-063-064-067-068-241400-
SOUTH CENTRAL WISCONSIN

CITY           SKY/WX    TMP DP  RH WIND       PRES   REMARKS
REEDSBURG      CLEAR     43  32  64 SW9       29.57F
BARABOO/DELLS  CLEAR     46  31  57 SW20G26   29.57F
LONE ROCK      NOT AVBL
MINERAL POINT  CLEAR     41  34  75 S9        29.62F
MADISON        CLOUDY    40  31  70 S9        29.62F WCI  34
MIDDLETON      CLOUDY    42  32  67 S9        29.63F
WATERTOWN      PTCLDY    39  32  76 S9        29.64F WCI  33
MONROE         CLEAR     36  30  80 S16       29.65F WCI  26
JANESVILLE     PTCLDY    39  30  70 S8        29.68F WCI  34
$$

WIZ051-052-058>065-066-070>072-241400-
SOUTHEAST WISCONSIN

CITY           SKY/WX    TMP DP  RH WIND       PRES   REMARKS
MILWAUKEE      MOCLDY    43  31  62 SW15G24   29.67F
WAUKESHA       CLEAR     37  28  70 S15G21    29.67F WCI  28
MILWAUKEE/TIMM MOCLDY    43  28  56 SW14      29.67F
RACINE         PTCLDY    39  30  70 S10       29.71F WCI  32
BURLINGTON     CLEAR     42  35  76 S9        29.69F
KENOSHA        CLOUDY    40  29  64 SW13      29.70F WCI  32
FOND DU LAC    PTCLDY    42  29  59 SW20G28   29.57F
SHEBOYGAN      PTCLDY    46  33  60 S13       29.59F
WEST BEND      PTCLDY    43  32  65 SW8       29.63F
JUNEAU         PTCLDY    37  30  74 S15       29.64F WCI  28
$$

LSZ147-162-241400-
LAKE SUPERIOR

STATION/POSITION TIME  TEMP    WIND        PRES    WAVE
                       AIR SEA DIR/SP/G            HT/PER
                 (UTC) (F)     (DEG/KT/KT) (MB)    (FT/S)
DEVILS ISLAND    1200   43     230/ 17/ 19  991.4F
SAXON HARBOR     1240   48     200/ 11/ 18  991.2F
$$

LMZ867-665-643>646-241400-
LAKE MICHIGAN

STATION/POSITION TIME  TEMP    WIND        PRES    WAVE
                       AIR SEA DIR/SP/G            HT/PER
                 (UTC) (F)     (DEG/KT/KT) (MB)    (FT/S)
N MID LAKE BUOY  1150   46 47  200/ 27/ 33  999.6F   9/ 7
NORTHPORT PIER   1240   41     190/  5/ 13  998.6F
KEWAUNEE LAKESHO 1230   40     190/ 12/ 13 1000.2F
SHEBOYGAN LAKESH 1200   42     190/ 16/ 18 1003.3F
PORT WASHINGTON  1230   42     190/  7/ 11 1004.7F
MILWAUKEE LAKESH 1230   42     210/ 15/ 16   N/A
S MID LAKE BUOY  1150   45 47  210/ 21/ 25 1007.4F   4/ 5
KENOSHA   LAKESH 1200   40     210/  8/ 14 1006.8
$$

TC  - TEMPERATURE IN CELSIUS
VSB - VISIBILITY IN STATUTE MILES
WCI - WIND CHILL INDEX
HX  - HEAT INDEX





USA.gov is the U.S. government's official web portal to all federal, state and local government web resources and services.